DateTimeUTC,F1_A11,F1_S11,BsB_S11,BsG_S11,BsR_S11,BbsB_S11,BbsG_S11,BbsR_S11,BaB_A11,BaG_A11,BaR_A11,Tu_S11,T_S11,Uu_S11,U_S11,P_S11,T1_A11
2021-07-29T07:00:00Z,00000200,20000000,,,,,,,0000.11,0000.39,0000.18,18.0,25.0,05.7,03.7,0685.1,31.0
2021-07-29T07:01:00Z,00000200,20000000,,,,,,,0000.16,-000.26,-000.18,18.0,25.0,05.7,03.7,0685.2,31.0
2021-07-29T07:02:00Z,00000200,20000000,,,,,,,-000.17,-000.01,-000.33,17.9,25.0,05.7,03.7,0685.2,31.1
2021-07-29T07:03:00Z,00000200,60000000,,,,,,,0000.39,0000.39,0000.70,17.9,25.0,05.7,03.7,0685.2,31.0
2021-07-29T07:04:00Z,00000200,40000000,0001.94,0001.55,0001.40,0001.10,-000.01,0000.25,0000.98,0000.98,0000.62,18.0,24.7,06.1,04.1,0686.2,31.0
2021-07-29T07:05:00Z,00000200,00000000,0001.77,0001.75,0001.37,0000.34,0000.36,0000.20,-000.16,-000.68,-000.21,18.1,24.7,06.0,04.0,0686.2,31.0
2021-07-29T07:06:00Z,00000200,00000000,0002.30,0001.37,0001.04,-000.18,0000.13,0000.08,0000.04,0000.52,0000.10,18.1,24.7,06.0,04.0,0686.3,31.0
2021-07-29T07:07:00Z,00000200,00000000,0002.33,0001.87,0001.16,0000.49,0000.15,0000.08,0000.53,0000.29,0000.41,18.1,24.7,06.0,04.0,0686.2,31.0
2021-07-29T07:08:00Z,00000200,00000000,0002.24,0001.44,0001.49,0001.25,0000.20,0000.05,0000.22,0000.32,0000.14,18.1,24.6,05.9,03.9,0686.3,31.0
2021-07-29T07:09:00Z,00000200,00000000,0001.78,0001.47,0001.37,0000.46,0000.09,0000.29,0000.30,0000.11,0000.25,18.1,24.6,06.0,04.0,0686.3,31.0
2021-07-29T07:10:00Z,00000200,00000000,0001.97,0001.43,0001.20,0000.32,-000.07,-000.24,0000.11,0000.18,0000.23,18.1,24.6,05.9,03.9,0686.3,31.0
2021-07-29T07:11:00Z,00000200,00000000,0003.01,0001.60,0000.97,0000.42,0000.29,0000.18,0000.18,0000.27,-000.13,18.1,24.6,05.9,03.9,0686.3,31.0
2021-07-29T07:12:00Z,00000200,00000000,0002.32,0002.00,0001.50,0000.36,0000.50,0000.10,0000.39,0000.24,0000.18,18.1,24.6,05.9,04.0,0686.3,31.0
2021-07-29T07:13:00Z,00000200,00000000,0002.88,0001.70,0001.42,0000.36,0000.30,0000.28,-000.01,0000.17,0000.12,18.0,24.6,05.8,03.9,0686.3,31.0
2021-07-29T07:14:00Z,00000200,00000000,0002.07,0001.72,0001.31,0000.63,0000.25,0000.21,0000.12,0000.40,0000.45,18.0,24.6,05.9,03.9,0686.3,31.0
2021-07-29T07:15:00Z,00000200,00000000,0002.91,0001.96,0001.56,0000.87,0000.19,0000.52,0000.37,0000.03,0000.05,18.0,24.6,05.8,03.9,0686.3,31.0
2021-07-29T07:16:00Z,00000200,00000000,0002.45,0002.25,0001.59,0000.34,0000.42,-000.07,0000.78,0000.67,0000.32,18.0,24.6,05.9,03.9,0686.4,31.0
2021-07-29T07:17:00Z,00000200,00000000,0002.60,0001.91,0001.76,0000.05,0000.26,0000.17,0000.30,-000.10,0000.50,18.1,24.6,05.7,03.8,0686.4,31.0
2021-07-29T07:18:00Z,00000200,00000000,0002.58,0001.97,0001.11,0000.67,0000.09,0000.13,0000.26,0000.54,0000.15,18.2,24.7,05.7,03.9,0686.4,31.0
2021-07-29T07:19:00Z,00000200,00000000,0002.35,0001.95,0001.63,0000.72,0000.32,0000.35,0000.21,0000.35,-000.23,18.2,24.6,05.8,03.9,0686.4,31.0
2021-07-29T07:20:00Z,00000200,00000000,0003.56,0001.74,0001.59,0000.94,0000.13,0000.37,0000.41,0000.33,0000.59,18.2,24.7,05.6,03.8,0686.5,31.1
2021-07-29T07:21:00Z,00000200,00000000,0002.98,0002.36,0001.00,0001.25,0000.18,-000.25,0000.35,0000.74,0000.41,18.2,24.7,05.6,03.8,0686.5,31.1
2021-07-29T07:22:00Z,00000200,00000000,0002.54,0002.22,0001.58,0000.77,0000.17,0000.08,0000.64,-000.12,0000.15,18.2,24.7,05.7,03.8,0686.5,31.0
2021-07-29T07:23:00Z,00000200,00000000,0002.34,0002.06,0001.29,0000.92,0000.33,0000.17,-000.10,0000.33,0000.24,18.2,24.7,05.7,03.8,0686.5,31.0
2021-07-29T07:24:00Z,00000200,00000000,0002.85,0002.49,0001.56,0000.34,0000.22,0000.05,0000.52,0000.41,0000.15,18.2,24.6,05.7,03.8,0686.5,31.0
2021-07-29T07:25:00Z,00000200,00000000,0002.74,0001.94,0001.83,0000.65,0000.23,0000.09,0000.66,0000.64,0000.43,18.2,24.6,05.8,03.9,0686.5,31.0
2021-07-29T07:26:00Z,00000200,00000000,0003.20,0002.39,0002.13,0000.60,0000.26,0000.13,0000.62,0000.80,0000.56,18.2,24.6,05.9,04.0,0686.5,31.0
2021-07-29T07:27:00Z,00000200,00000000,0002.99,0002.45,0002.19,0000.33,0000.15,0000.10,0000.64,0000.21,0000.73,18.2,24.6,05.9,04.0,0686.5,31.0
2021-07-29T07:28:00Z,00000200,00000000,0002.62,0002.67,0001.99,0000.52,0000.49,0000.35,0000.21,0000.18,-000.22,18.1,24.6,06.0,04.1,0686.5,31.0
2021-07-29T07:29:00Z,00000200,00000000,0003.58,0002.72,0001.75,0000.87,0000.19,0000.06,0000.41,0000.22,0000.37,18.1,24.6,06.0,04.1,0686.6,31.0
2021-07-29T07:30:00Z,00000200,00000000,0003.27,0002.45,0001.76,0000.39,0000.40,0000.18,0000.13,0000.15,0000.26,18.1,24.6,05.9,04.0,0686.6,31.0
2021-07-29T07:31:00Z,00000200,00000000,0003.14,0002.30,0001.86,0000.32,0000.15,0000.13,0000.81,0000.88,0000.23,18.1,24.6,06.0,04.0,0686.6,31.0
2021-07-29T07:32:00Z,00000200,00000000,0004.16,0002.79,0001.69,0001.14,0000.40,0000.10,0000.72,0000.82,0000.67,18.1,24.6,05.9,04.0,0686.5,31.0
2021-07-29T07:33:00Z,00000200,00000000,0002.88,0002.27,0001.88,0000.67,0000.16,0000.59,0000.03,-000.13,0000.02,18.1,24.6,06.0,04.0,0686.5,31.0
2021-07-29T07:34:00Z,00000200,00000000,0003.30,0002.88,0001.85,0000.78,0000.49,0000.27,0000.53,0000.42,0000.63,18.1,24.6,06.1,04.1,0686.5,31.0
2021-07-29T07:35:00Z,00000200,00000000,0003.92,0002.36,0001.87,0000.78,-000.10,0000.29,0000.91,0000.60,0000.40,18.1,24.6,06.0,04.1,0686.5,31.0
2021-07-29T07:36:00Z,00000200,00000000,0003.23,0002.91,0001.99,0000.73,0000.12,0000.35,0000.09,0000.19,-000.19,18.1,24.6,06.1,04.1,0686.5,31.0
2021-07-29T07:37:00Z,00000200,00000000,0003.85,0002.39,0001.73,0001.08,0000.14,0000.35,0000.40,0000.33,0000.54,18.1,24.5,05.9,04.0,0686.5,31.0
2021-07-29T07:38:00Z,00000200,00000000,0002.84,0002.58,0001.78,0000.02,0000.28,0000.50,-000.01,0000.31,-000.05,18.1,24.5,06.0,04.0,0686.5,31.0
2021-07-29T07:39:00Z,00000200,00000000,0003.18,0002.71,0001.87,0000.77,0000.68,0000.02,0000.54,0000.12,0000.43,18.0,24.5,05.9,04.0,0686.5,31.0
2021-07-29T07:40:00Z,00000200,00000000,0003.66,0002.92,0001.86,0001.05,0000.30,0000.23,0000.65,0000.87,0000.35,18.0,24.5,06.0,04.0,0686.5,31.0
2021-07-29T07:41:00Z,00000200,00000000,0003.63,0003.14,0002.02,0000.13,0000.39,0000.10,0000.59,0000.34,0000.50,18.0,24.5,06.0,04.0,0686.5,31.0
2021-07-29T07:42:00Z,00000200,00000000,0003.46,0002.42,0001.73,0001.08,0000.29,0000.13,0000.22,0000.43,0000.39,18.0,24.5,06.0,04.1,0686.5,31.0
2021-07-29T07:43:00Z,00000200,00000000,0002.74,0002.15,0001.83,0000.67,0000.38,0000.39,0000.52,0000.69,0000.38,18.0,24.5,06.0,04.0,0686.6,31.0
2021-07-29T07:44:00Z,00000200,00000000,0002.56,0002.49,0002.08,0000.86,0000.51,-000.02,0000.24,-000.02,0000.08,18.0,24.5,06.0,04.0,0686.5,31.0
2021-07-29T07:45:00Z,00000200,00000000,0004.16,0002.84,0002.26,0000.19,0000.25,0000.67,0000.74,0000.83,0000.59,18.0,24.5,06.1,04.1,0686.5,31.0
2021-07-29T07:46:00Z,00000200,00000000,0003.29,0002.46,0002.14,0000.28,0000.27,-000.02,0000.86,0000.60,0000.43,18.0,24.5,06.1,04.1,0686.5,31.0
2021-07-29T07:47:00Z,00000200,00000000,0003.20,0002.93,0002.13,0000.87,0000.47,0000.38,0000.92,0000.58,0000.62,18.1,24.5,06.2,04.2,0686.6,31.0
2021-07-29T07:48:00Z,00000200,00000000,0003.88,0002.74,0001.79,0000.81,0000.28,0000.11,0000.28,0000.54,-000.05,18.2,24.6,06.2,04.2,0686.5,31.0
2021-07-29T07:49:00Z,00000200,00000000,0003.34,0002.62,0001.93,0000.82,0000.01,0000.51,0000.41,0000.55,0000.66,18.2,24.6,06.1,04.1,0686.5,31.1
2021-07-29T07:50:00Z,00000200,00000000,0003.73,0002.80,0001.94,0000.57,0000.27,0000.11,0000.26,0000.21,0000.30,18.3,24.6,06.0,04.1,0686.5,31.1
2021-07-29T07:51:00Z,00000200,00000000,0003.38,0002.48,0001.72,0000.89,0000.25,0000.05,0000.79,0000.53,0000.31,18.3,24.6,06.1,04.1,0686.6,31.1
2021-07-29T07:52:00Z,00000200,00000000,0002.92,0002.36,0001.78,0000.63,0000.66,-000.05,0000.24,0000.33,0000.14,18.3,24.6,06.3,04.2,0686.7,31.1
2021-07-29T07:53:00Z,00000200,00000000,0003.59,0002.74,0001.75,0000.65,0000.85,0000.20,0000.89,0000.70,0000.52,18.2,24.6,06.2,04.2,0686.7,31.0
2021-07-29T07:54:00Z,00000200,00000000,0002.87,0002.43,0001.46,0000.44,-000.04,0000.02,0000.02,0000.27,0000.12,18.2,24.6,06.1,04.1,0686.6,31.0
2021-07-29T07:55:00Z,00000200,00000000,0003.11,0002.09,0002.15,0000.62,0000.26,0000.24,0000.31,-000.09,0000.26,18.2,24.6,06.2,04.2,0686.6,31.0
2021-07-29T07:56:00Z,00000200,00000000,0003.43,0002.50,0001.64,0000.47,0000.24,0000.15,0000.67,0000.67,0000.53,18.2,24.6,06.1,04.1,0686.7,31.0
2021-07-29T07:57:00Z,00000200,40000000,,,,,,,-000.01,0000.11,-000.04,18.2,24.6,05.5,03.7,0686.6,31.0
2021-07-29T07:58:00Z,00000200,60000000,,,,,,,-000.28,-000.34,-000.14,17.9,24.8,06.1,04.0,0685.7,31.0
2021-07-29T07:59:00Z,00000200,20000000,,,,,,,-000.11,-000.14,-000.33,17.9,24.9,06.0,03.9,0685.7,31.0
